When you browse on this site, cookies collect data to enhance your experience and personalize the content and advertising you see.
Visit our Privacy Policy to learn more. By continuing to use the site, you agree to this use of cookies and data.
  • en France
  • Liste des pays
  • À 7 jours
  • Température de l'eau
  • Carte météo
  • Widgets météo
  • user-avatar
    Se connecter

    Météo par heure à Karlsruhe

    Ce jour, 23 Septembre, Lundi

    Heure Température Précipitation Vent Pression Humidité
    00:00 +18°C° 0.1 mm 4 m/s 748 mmHg 83%
    01:00 +17°C° 0.1 mm 5 m/s 748 mmHg 88%
    02:00 +17°C° 2.2 mm 4 m/s 748 mmHg 90%
    03:00 +15°C° 2.2 mm 4 m/s 749 mmHg 92%
    04:00 +14°C° 2.2 mm 4 m/s 749 mmHg 94%
    05:00 +14°C° 1.6 mm 4 m/s 750 mmHg 93%
    06:00 +14°C° 1.6 mm 4 m/s 750 mmHg 92%
    07:00 +14°C° 1.6 mm 3 m/s 751 mmHg 91%
    08:00 +14°C° 0.3 mm 3 m/s 751 mmHg 90%
    09:00 +16°C° 0.3 mm 3 m/s 751 mmHg 88%
    10:00 +16°C° 0.3 mm 3 m/s 752 mmHg 87%
    11:00 +17°C° 0.1 mm 4 m/s 752 mmHg 82%
    12:00 +18°C° 0.1 mm 4 m/s 752 mmHg 77%
    13:00 +19°C° 0.1 mm 4 m/s 752 mmHg 72%
    14:00 +19°C° 0.1 mm 4 m/s 752 mmHg 69%
    15:00 +19°C° 0.1 mm 3 m/s 752 mmHg 66%
    16:00 +19°C° 0.1 mm 3 m/s 752 mmHg 63%
    17:00 +18°C° 0 mm 3 m/s 752 mmHg 68%
    18:00 +17°C° 0 mm 2 m/s 752 mmHg 74%
    19:00 +16°C° 0 mm 1 m/s 752 mmHg 79%
    20:00 +15°C° 0 mm 1 m/s 752 mmHg 82%
    21:00 +14°C° 0 mm 1 m/s 753 mmHg 85%
    22:00 +14°C° 0 mm 1 m/s 753 mmHg 88%
    23:00 +13°C° 0 mm 1 m/s 753 mmHg 88%

    Demain, 24 Septembre, Mardi

    Heure Température Précipitation Vent Pression Humidité
    00:00 +13°C° 0 mm 1 m/s 753 mmHg 89%
    01:00 +13°C° 0 mm 1 m/s 753 mmHg 90%
    02:00 +13°C° 0 mm 1 m/s 752 mmHg 90%
    03:00 +12°C° 0 mm 1 m/s 752 mmHg 90%
    04:00 +12°C° 0 mm 1 m/s 752 mmHg 91%
    05:00 +12°C° 0 mm 1 m/s 751 mmHg 90%
    06:00 +12°C° 0 mm 1 m/s 751 mmHg 90%
    07:00 +12°C° 0 mm 1 m/s 751 mmHg 90%
    08:00 +14°C° 0 mm 1 m/s 750 mmHg 82%
    09:00 +16°C° 0 mm 1 m/s 750 mmHg 73%
    10:00 +19°C° 0 mm 1 m/s 750 mmHg 65%
    11:00 +20°C° 0 mm 1 m/s 749 mmHg 60%
    12:00 +22°C° 0 mm 1 m/s 749 mmHg 56%
    13:00 +23°C° 0 mm 2 m/s 748 mmHg 51%
    14:00 +21°C° 0 mm 2 m/s 748 mmHg 54%
    15:00 +21°C° 0 mm 2 m/s 748 mmHg 57%
    16:00 +20°C° 0 mm 3 m/s 747 mmHg 60%
    17:00 +19°C° 0.2 mm 3 m/s 747 mmHg 68%
    18:00 +17°C° 0.2 mm 3 m/s 747 mmHg 77%
    19:00 +16°C° 0.2 mm 3 m/s 747 mmHg 85%
    20:00 +16°C° 0 mm 3 m/s 747 mmHg 85%
    21:00 +16°C° 0 mm 3 m/s 747 mmHg 85%
    22:00 +16°C° 0 mm 3 m/s 747 mmHg 85%
    23:00 +14°C° 0.1 mm 3 m/s 747 mmHg 87%

    Après-demain, 25 Septembre, Mercredi

    Heure Température Précipitation Vent Pression Humidité
    00:00 +14°C° 0.1 mm 4 m/s 746 mmHg 89%
    01:00 +14°C° 0.1 mm 4 m/s 746 mmHg 91%
    02:00 +14°C° 0.1 mm 4 m/s 746 mmHg 89%
    03:00 +14°C° 0.1 mm 4 m/s 746 mmHg 88%
    04:00 +14°C° 0.1 mm 4 m/s 747 mmHg 86%
    05:00 +13°C° 0.1 mm 4 m/s 747 mmHg 87%
    06:00 +13°C° 0.1 mm 4 m/s 747 mmHg 87%
    07:00 +12°C° 0.1 mm 3 m/s 747 mmHg 88%
    08:00 +13°C° 0.1 mm 4 m/s 747 mmHg 83%
    09:00 +14°C° 0.1 mm 4 m/s 747 mmHg 78%
    10:00 +15°C° 0.1 mm 5 m/s 747 mmHg 74%
    11:00 +16°C° 0.2 mm 5 m/s 747 mmHg 70%
    12:00 +16°C° 0.2 mm 5 m/s 747 mmHg 66%
    13:00 +17°C° 0.2 mm 5 m/s 747 mmHg 63%
    14:00 +17°C° 0.1 mm 5 m/s 748 mmHg 66%
    15:00 +17°C° 0.1 mm 4 m/s 748 mmHg 69%
    16:00 +17°C° 0.1 mm 3 m/s 748 mmHg 73%
    17:00 +16°C° 0.1 mm 3 m/s 748 mmHg 75%
    18:00 +16°C° 0.1 mm 3 m/s 748 mmHg 78%
    19:00 +14°C° 0.1 mm 3 m/s 748 mmHg 80%
    20:00 +14°C° 0.1 mm 3 m/s 748 mmHg 82%
    21:00 +14°C° 0.1 mm 3 m/s 749 mmHg 84%
    22:00 +14°C° 0.1 mm 4 m/s 749 mmHg 86%
    23:00 +13°C° 0.1 mm 4 m/s 749 mmHg 87%

    26 Septembre, Jeudi

    Heure Température Précipitation Vent Pression Humidité
    00:00 +13°C° 0.1 mm 4 m/s 749 mmHg 87%
    01:00 +13°C° 0.1 mm 4 m/s 749 mmHg 88%
    02:00 +13°C° 0 mm 4 m/s 749 mmHg 88%
    03:00 +13°C° 0 mm 3 m/s 749 mmHg 88%
    04:00 +13°C° 0 mm 3 m/s 749 mmHg 88%
    05:00 +14°C° 0.1 mm 3 m/s 749 mmHg 88%
    06:00 +14°C° 0.1 mm 3 m/s 749 mmHg 88%
    07:00 +14°C° 0.1 mm 4 m/s 749 mmHg 88%
    08:00 +14°C° 0.2 mm 4 m/s 750 mmHg 89%
    09:00 +15°C° 0.2 mm 4 m/s 750 mmHg 89%
    10:00 +15°C° 0.2 mm 4 m/s 751 mmHg 89%
    11:00 +15°C° 0.2 mm 4 m/s 751 mmHg 89%
    12:00 +15°C° 0.2 mm 4 m/s 751 mmHg 89%
    13:00 +15°C° 0.2 mm 4 m/s 751 mmHg 89%
    14:00 +17°C° 0 mm 3 m/s 751 mmHg 87%
    15:00 +18°C° 0 mm 3 m/s 751 mmHg 84%
    16:00 +18°C° 0 mm 3 m/s 751 mmHg 81%
    17:00 +18°C° 0 mm 3 m/s 751 mmHg 83%
    18:00 +17°C° 0 mm 2 m/s 751 mmHg 86%
    19:00 +17°C° 0 mm 2 m/s 751 mmHg 88%
    20:00 +17°C° 0 mm 2 m/s 751 mmHg 88%
    21:00 +17°C° 0 mm 2 m/s 751 mmHg 87%
    22:00 +16°C° 0 mm 2 m/s 751 mmHg 86%
    23:00 +16°C° 0 mm 2 m/s 751 mmHg 87%

    27 Septembre, Vendredi

    Heure Température Précipitation Vent Pression Humidité
    00:00 +16°C° 0 mm 2 m/s 751 mmHg 87%
    01:00 +16°C° 0 mm 3 m/s 751 mmHg 87%
    02:00 +16°C° 0 mm 3 m/s 750 mmHg 88%
    03:00 +16°C° 0 mm 3 m/s 750 mmHg 88%
    04:00 +14°C° 0 mm 3 m/s 750 mmHg 89%
    05:00 +14°C° 0 mm 3 m/s 750 mmHg 88%
    06:00 +14°C° 0 mm 3 m/s 750 mmHg 88%
    07:00 +14°C° 0 mm 3 m/s 749 mmHg 88%
    08:00 +17°C° 0 mm 3 m/s 750 mmHg 83%
    09:00 +18°C° 0 mm 4 m/s 750 mmHg 77%
    10:00 +19°C° 0 mm 4 m/s 750 mmHg 72%
    11:00 +19°C° 0.2 mm 4 m/s 750 mmHg 73%
    12:00 +19°C° 0.2 mm 3 m/s 749 mmHg 75%
    13:00 +19°C° 0.2 mm 3 m/s 749 mmHg 76%
    14:00 +19°C° 0.5 mm 3 m/s 749 mmHg 79%
    15:00 +18°C° 0.5 mm 3 m/s 749 mmHg 81%
    16:00 +18°C° 0.5 mm 3 m/s 748 mmHg 83%
    17:00 +17°C° 0.2 mm 3 m/s 749 mmHg 85%
    18:00 +17°C° 0.2 mm 2 m/s 749 mmHg 86%
    19:00 +16°C° 0.2 mm 2 m/s 749 mmHg 88%
    20:00 +16°C° 0.1 mm 2 m/s 749 mmHg 89%
    21:00 +15°C° 0.1 mm 2 m/s 750 mmHg 89%
    22:00 +15°C° 0.1 mm 2 m/s 750 mmHg 90%
    23:00 +13°C° 0 mm 3 m/s 750 mmHg 90%

    28 Septembre, Samedi

    Heure Température Précipitation Vent Pression Humidité
    00:00 +13°C° 0 mm 3 m/s 750 mmHg 89%
    01:00 +12°C° 0 mm 3 m/s 750 mmHg 89%
    02:00 +12°C° 0.1 mm 3 m/s 750 mmHg 89%
    03:00 +12°C° 0.1 mm 3 m/s 750 mmHg 89%
    04:00 +13°C° 0.1 mm 3 m/s 750 mmHg 89%
    05:00 +12°C° 0 mm 3 m/s 750 mmHg 89%
    06:00 +12°C° 0 mm 3 m/s 750 mmHg 90%
    07:00 +12°C° 0 mm 3 m/s 750 mmHg 90%
    08:00 +13°C° 0 mm 4 m/s 750 mmHg 80%
    09:00 +15°C° 0 mm 5 m/s 750 mmHg 70%
    10:00 +16°C° 0 mm 6 m/s 750 mmHg 60%
    11:00 +17°C° 0 mm 6 m/s 750 mmHg 56%
    12:00 +18°C° 0 mm 7 m/s 750 mmHg 51%
    13:00 +20°C° 0 mm 7 m/s 750 mmHg 46%
    14:00 +19°C° 0 mm 6 m/s 750 mmHg 48%
    15:00 +19°C° 0 mm 6 m/s 749 mmHg 51%
    16:00 +17°C° 0 mm 5 m/s 749 mmHg 53%
    17:00 +16°C° 0 mm 5 m/s 749 mmHg 59%
    18:00 +15°C° 0 mm 4 m/s 749 mmHg 64%
    19:00 +14°C° 0 mm 3 m/s 750 mmHg 70%
    20:00 +14°C° 0 mm 4 m/s 750 mmHg 70%
    21:00 +14°C° 0 mm 4 m/s 750 mmHg 71%
    22:00 +14°C° 0 mm 4 m/s 750 mmHg 72%
    23:00 +14°C° 0 mm 4 m/s 750 mmHg 72%
    Voir plus